Time,TemperatureF,DewpointF,PressureIn,WindDirection,WindDirectionDegrees,WindSpeedMPH,WindSpeedGustMPH,Humidity,HourlyPrecipIn,Conditions,Clouds,dailyrainin,SoftwareType,DateUTC
2013-07-19 00:12:00,80.0,76.0,-100.00,SW,225,4.0,6.0,89,0.00,,,-99.99,,2013-07-19 04:12:00,
2013-07-19 00:22:00,79.0,76.0,-100.00,SW,230,5.0,6.0,90,0.00,,,-99.99,,2013-07-19 04:22:00,
2013-07-19 00:33:00,79.0,76.0,-100.00,SW,225,4.0,6.0,91,0.00,,,-99.99,,2013-07-19 04:33:00,
2013-07-19 00:44:00,78.0,76.0,-100.00,SW,230,4.0,6.0,92,0.00,,,-99.99,,2013-07-19 04:44:00,
2013-07-19 01:02:00,78.0,75.0,-100.00,SW,215,4.0,6.0,92,0.00,,,-99.99,,2013-07-19 05:02:00,
2013-07-19 01:11:00,78.0,76.0,-100.00,SSW,205,6.0,6.0,92,0.00,,,-99.99,,2013-07-19 05:11:00,
2013-07-19 01:22:00,78.0,76.0,-100.00,SW,215,6.0,7.0,92,0.00,,,-99.99,,2013-07-19 05:22:00,
2013-07-19 01:32:00,78.0,76.0,-100.00,SW,230,4.0,7.0,92,0.00,,,-99.99,,2013-07-19 05:32:00,
2013-07-19 01:53:00,78.0,76.0,-100.00,SW,220,6.0,8.0,92,0.00,,,-99.99,,2013-07-19 05:53:00,
2013-07-19 02:01:00,78.0,75.0,-100.00,SSW,210,6.0,8.0,92,0.00,,,-99.99,,2013-07-19 06:01:00,
2013-07-19 02:11:00,78.0,75.0,-100.00,SSW,210,6.0,8.0,92,0.00,,,-99.99,,2013-07-19 06:11:00,
2013-07-19 02:22:00,78.0,75.0,-100.00,SSW,210,6.0,8.0,92,0.00,,,-99.99,,2013-07-19 06:22:00,
2013-07-19 02:33:00,78.0,75.0,-100.00,SW,225,6.0,8.0,92,0.00,,,-99.99,,2013-07-19 06:33:00,
2013-07-19 02:43:00,78.0,75.0,-100.00,SW,225,6.0,8.0,92,0.00,,,-99.99,,2013-07-19 06:43:00,
2013-07-19 03:32:00,77.0,75.0,-100.00,SW,220,4.0,6.0,94,0.00,,,-99.99,,2013-07-19 07:32:00,
2013-07-19 03:43:00,77.0,75.0,-100.00,SW,220,4.0,7.0,94,0.00,,,-99.99,,2013-07-19 07:43:00,
2013-07-19 03:53:00,77.0,75.0,-100.00,SW,225,6.0,7.0,94,0.00,,,-99.99,,2013-07-19 07:53:00,
2013-07-19 04:01:00,76.0,75.0,-100.00,SW,230,5.0,7.0,94,0.00,,,-99.99,,2013-07-19 08:01:00,
2013-07-19 04:12:00,76.0,75.0,-100.00,SW,215,6.0,7.0,94,0.00,,,-99.99,,2013-07-19 08:12:00,
2013-07-19 04:22:00,76.0,75.0,-100.00,SW,220,6.0,9.0,94,0.00,,,-99.99,,2013-07-19 08:22:00,
2013-07-19 04:33:00,76.0,75.0,-100.00,SW,225,6.0,9.0,94,0.00,,,-99.99,,2013-07-19 08:33:00,
2013-07-19 04:43:00,76.0,75.0,-100.00,SW,220,6.0,9.0,94,0.00,,,-99.99,,2013-07-19 08:43:00,
2013-07-19 04:52:00,76.0,75.0,-100.00,SW,220,6.0,9.0,94,0.00,,,-99.99,,2013-07-19 08:52:00,
2013-07-19 05:32:00,76.0,74.0,-100.00,SW,235,6.0,9.0,94,0.00,,,-99.99,,2013-07-19 09:32:00,
2013-07-19 06:01:00,76.0,75.0,-100.00,SW,230,6.0,10.0,95,0.00,,,-99.99,,2013-07-19 10:01:00,
2013-07-19 06:11:00,76.0,75.0,-100.00,SW,235,7.0,9.0,95,0.00,,,-99.99,,2013-07-19 10:11:00,
2013-07-19 06:22:00,76.0,75.0,-100.00,SW,235,8.0,10.0,95,0.00,,,-99.99,,2013-07-19 10:22:00,
2013-07-19 06:32:00,76.0,75.0,-100.00,SW,220,7.0,11.0,94,0.00,,,-99.99,,2013-07-19 10:32:00,
2013-07-19 06:43:00,76.0,75.0,-100.00,SW,225,7.0,11.0,95,0.00,,,-99.99,,2013-07-19 10:43:00,
2013-07-19 07:12:00,76.0,75.0,-100.00,SW,225,8.0,11.0,95,0.00,,,-99.99,,2013-07-19 11:12:00,
2013-07-19 07:22:00,76.0,75.0,-100.00,SW,215,6.0,11.0,95,0.00,,,-99.99,,2013-07-19 11:22:00,
2013-07-19 07:33:00,76.0,75.0,-100.00,SW,220,9.0,11.0,94,0.00,,,-99.99,,2013-07-19 11:33:00,
2013-07-19 07:43:00,77.0,75.0,-100.00,SW,225,7.0,11.0,94,0.00,,,-99.99,,2013-07-19 11:43:00,
2013-07-19 08:01:00,77.0,76.0,-100.00,SW,230,9.0,12.0,94,0.00,,,-99.99,,2013-07-19 12:01:00,
2013-07-19 08:43:00,79.0,76.0,-100.00,SW,225,9.0,14.0,90,0.00,,,-99.99,,2013-07-19 12:43:00,
2013-07-19 09:12:00,81.0,76.0,-100.00,SW,235,11.0,19.0,85,0.00,,,-99.99,,2013-07-19 13:12:00,
2013-07-19 09:32:00,82.0,76.0,-100.00,SW,230,11.0,17.0,83,0.00,,,-99.99,,2013-07-19 13:32:00,
2013-07-19 09:43:00,82.0,76.0,-100.00,SW,230,11.0,17.0,83,0.00,,,-99.99,,2013-07-19 13:43:00,
2013-07-19 10:02:00,83.0,76.0,-100.00,WSW,245,13.0,21.0,78,0.00,,,-99.99,,2013-07-19 14:02:00,
2013-07-19 10:12:00,84.0,76.0,-100.00,WSW,250,12.0,18.0,77,0.00,,,-99.99,,2013-07-19 14:12:00,
2013-07-19 10:23:00,84.0,76.0,-100.00,WSW,245,11.0,19.0,76,0.00,,,-99.99,,2013-07-19 14:23:00,
2013-07-19 10:33:00,85.0,76.0,-100.00,WSW,255,11.0,18.0,76,0.00,,,-99.99,,2013-07-19 14:33:00,
2013-07-19 10:43:00,85.0,76.0,-100.00,WSW,255,13.0,19.0,74,0.00,,,-99.99,,2013-07-19 14:43:00,
2013-07-19 11:02:00,86.0,76.0,-100.00,WSW,250,13.0,18.0,73,0.00,,,-99.99,,2013-07-19 15:02:00,
2013-07-19 11:11:00,86.0,76.0,-100.00,WSW,255,14.0,19.0,72,0.00,,,-99.99,,2013-07-19 15:11:00,
2013-07-19 11:23:00,86.0,76.0,-100.00,WSW,255,14.0,19.0,72,0.00,,,-99.99,,2013-07-19 15:23:00,
2013-07-19 11:43:00,87.0,76.0,-100.00,SW,235,14.0,21.0,69,0.00,,,-99.99,,2013-07-19 15:43:00,
2013-07-19 12:01:00,88.0,76.0,-100.00,WSW,250,13.0,22.0,67,0.00,,,-99.99,,2013-07-19 16:01:00,
2013-07-19 12:11:00,89.0,76.0,-100.00,WSW,240,16.0,21.0,65,0.00,,,-99.99,,2013-07-19 16:11:00,
2013-07-19 12:22:00,89.0,75.0,-100.00,WSW,255,16.0,23.0,64,0.00,,,-99.99,,2013-07-19 16:22:00,
2013-07-19 12:32:00,89.0,76.0,-100.00,SW,235,18.0,22.0,64,0.00,,,-99.99,,2013-07-19 16:32:00,
2013-07-19 12:43:00,89.0,76.0,-100.00,SW,235,18.0,22.0,64,0.00,,,-99.99,,2013-07-19 16:43:00,
2013-07-19 13:12:00,90.0,74.0,-100.00,WSW,240,17.0,25.0,60,0.00,,,-99.99,,2013-07-19 17:12:00,
2013-07-19 13:22:00,90.0,74.0,-100.00,WSW,245,16.0,25.0,60,0.00,,,-99.99,,2013-07-19 17:22:00,
2013-07-19 13:32:00,90.0,74.0,-100.00,West,270,16.0,22.0,59,0.00,,,-99.99,,2013-07-19 17:32:00,
2013-07-19 13:43:00,91.0,75.0,-100.00,WSW,240,14.0,23.0,59,0.00,,,-99.99,,2013-07-19 17:43:00,
2013-07-19 13:52:00,91.0,75.0,-100.00,WSW,240,14.0,23.0,59,0.00,,,-99.99,,2013-07-19 17:52:00,
2013-07-19 14:01:00,91.0,75.0,-100.00,WSW,240,14.0,23.0,59,0.00,,,-99.99,,2013-07-19 18:01:00,
2013-07-19 14:11:00,91.0,74.0,-100.00,WSW,245,16.0,25.0,58,0.00,,,-99.99,,2013-07-19 18:11:00,
2013-07-19 14:22:00,91.0,74.0,-100.00,WSW,255,15.0,23.0,57,0.00,,,-99.99,,2013-07-19 18:22:00,
2013-07-19 14:32:00,91.0,74.0,-100.00,WSW,255,15.0,23.0,57,0.00,,,-99.99,,2013-07-19 18:32:00,
2013-07-19 14:42:00,91.0,74.0,-100.00,WSW,255,15.0,23.0,57,0.00,,,-99.99,,2013-07-19 18:42:00,
2013-07-19 15:01:00,92.0,74.0,-100.00,WSW,245,16.0,24.0,55,0.00,,,-99.99,,2013-07-19 19:01:00,
2013-07-19 15:11:00,92.0,74.0,-100.00,WSW,245,16.0,24.0,55,0.00,,,-99.99,,2013-07-19 19:11:00,
2013-07-19 15:22:00,92.0,74.0,-100.00,WSW,240,15.0,25.0,55,0.00,,,-99.99,,2013-07-19 19:22:00,
2013-07-19 15:32:00,92.0,73.0,-100.00,WSW,245,17.0,25.0,54,0.00,,,-99.99,,2013-07-19 19:32:00,
2013-07-19 15:43:00,92.0,74.0,-100.00,West,260,14.0,28.0,55,0.00,,,-99.99,,2013-07-19 19:43:00,
2013-07-19 16:11:00,93.0,73.0,-100.00,SW,235,18.0,27.0,52,0.00,,,-99.99,,2013-07-19 20:11:00,
2013-07-19 16:22:00,92.0,73.0,-100.00,WSW,250,17.0,24.0,52,0.00,,,-99.99,,2013-07-19 20:22:00,
2013-07-19 16:43:00,93.0,73.0,-100.00,WSW,255,16.0,24.0,51,0.00,,,-99.99,,2013-07-19 20:43:00,
2013-07-19 17:01:00,93.0,72.0,-100.00,SW,235,20.0,24.0,50,0.00,,,-99.99,,2013-07-19 21:01:00,
2013-07-19 18:01:00,92.0,73.0,-100.00,WSW,255,10.0,24.0,55,0.00,,,-99.99,,2013-07-19 22:01:00,
2013-07-19 18:11:00,92.0,73.0,-100.00,WSW,245,11.0,21.0,54,0.00,,,-99.99,,2013-07-19 22:11:00,
2013-07-19 18:21:00,91.0,72.0,-100.00,WSW,245,16.0,23.0,53,0.00,,,-99.99,,2013-07-19 22:21:00,
2013-07-19 18:32:00,91.0,73.0,-100.00,WSW,240,14.0,22.0,54,0.00,,,-99.99,,2013-07-19 22:32:00,
2013-07-19 18:43:00,91.0,73.0,-100.00,WSW,245,12.0,18.0,54,0.00,,,-99.99,,2013-07-19 22:43:00,
2013-07-19 19:01:00,91.0,73.0,-100.00,West,260,14.0,19.0,55,0.00,,,-99.99,,2013-07-19 23:01:00,
2013-07-19 19:21:00,91.0,72.0,-100.00,WSW,245,14.0,19.0,55,0.00,,,-99.99,,2013-07-19 23:21:00,
2013-07-19 19:43:00,90.0,73.0,-100.00,WSW,240,11.0,15.0,58,0.00,,,-99.99,,2013-07-19 23:43:00,
2013-07-19 19:52:00,90.0,73.0,-100.00,WSW,240,16.0,19.0,58,0.00,,,-99.99,,2013-07-19 23:52:00,
2013-07-19 20:01:00,89.0,73.0,-100.00,WSW,240,13.0,17.0,59,0.00,,,-99.99,,2013-07-20 00:01:00,
2013-07-19 20:11:00,89.0,74.0,-100.00,WSW,240,11.0,20.0,60,0.00,,,-99.99,,2013-07-20 00:11:00,
2013-07-19 20:22:00,89.0,73.0,-100.00,SW,235,12.0,19.0,61,0.00,,,-99.99,,2013-07-20 00:22:00,
2013-07-19 20:32:00,88.0,74.0,-100.00,SW,230,10.0,17.0,62,0.00,,,-99.99,,2013-07-20 00:32:00,
2013-07-19 20:43:00,88.0,74.0,-100.00,SW,235,9.0,17.0,64,0.00,,,-99.99,,2013-07-20 00:43:00,
2013-07-19 20:52:00,87.0,74.0,-100.00,SW,230,9.0,16.0,65,0.00,,,-99.99,,2013-07-20 00:52:00,
2013-07-19 21:01:00,87.0,74.0,-100.00,SW,230,9.0,16.0,65,0.00,,,-99.99,,2013-07-20 01:01:00,
2013-07-19 21:11:00,87.0,74.0,-100.00,SW,230,9.0,16.0,65,0.00,,,-99.99,,2013-07-20 01:11:00,
2013-07-19 22:02:00,79.0,76.0,-100.00,SW,230,9.0,13.0,90,0.00,,,-99.99,,2013-07-20 02:02:00,
2013-07-19 22:22:00,80.0,77.0,-100.00,SW,225,9.0,12.0,89,0.00,,,-99.99,,2013-07-20 02:22:00,
2013-07-19 22:33:00,82.0,77.0,-100.00,SW,235,11.0,17.0,84,0.00,,,-99.99,,2013-07-20 02:33:00,
2013-07-19 22:43:00,83.0,77.0,-100.00,SW,220,12.0,17.0,84,0.00,,,-99.99,,2013-07-20 02:43:00,
2013-07-19 23:02:00,83.0,77.0,-100.00,SW,225,12.0,17.0,84,0.00,,,-99.99,,2013-07-20 03:02:00,
2013-07-19 23:12:00,83.0,77.0,-100.00,SW,220,11.0,17.0,84,0.00,,,-99.99,,2013-07-20 03:12:00,
2013-07-19 23:44:00,82.0,76.0,-100.00,SW,225,13.0,21.0,81,0.00,,,-99.99,,2013-07-20 03:44:00,